Temperature
28 29 29 29 29 29 29 29 30 30 30 29 28 27 26 25 24 24 23 22 22 21 21 20 20 20 20 20 20 20 19 19 19 19 19 18 18 18 18 18 17 17 17 17
27 28 28 28 28 28 28 29 29 29 29 28 26 25 25 24 24 23 23 22 22 21 21 20 20 20 20 20 20 19 19 19 19 19 19 18 18 18 18 18 17 17 17 16
27 27 27 27 28 28 28 28 29 28 28 26 26 24 24 24 23 23 22 22 21 21 20 20 20 20 20 20 20 19 19 19 19 18 18 18 18 17 17 17 17 17 16 16
26 25 25 27 27 27 27 26 27 26 26 25 24 23 23 23 22 22 21 21 21 21 20 20 20 20 20 19 19 19 19 19 18 18 18 17 17 17 17 17 17 16 16 16
26 25 26 26 25 26 25 25 25 25 24 24 23 23 23 21 21 20 20 20 20 20 20 20 20 19 19 19 19 19 18 18 18 18 17 17 17 17 17 17 16 16 16 16
24 24 25 25 25 24 25 25 24 23 23 23 23 25 24 20 19 19 19 19 19 19 19 19 19 19 19 19 19 18 18 18 18 18 17 17 17 17 16 16 16 16 15 15
24 24 25 24 23 23 24 24 22 22 21 22 22 22 20 19 18 18 18 18 18 18 19 18 18 18 18 18 18 18 18 18 18 17 17 17 17 16 16 16 15 15 15 15
23 23 24 22 23 23 22 21 20 20 20 20 19 19 18 18 17 17 17 18 18 18 18 18 18 18 18 18 18 17 17 17 17 17 17 16 16 16 15 15 15 15 14 14
22 22 20 19 20 19 19 19 19 19 19 18 18 18 17 17 17 17 17 17 17 17 17 17 17 17 17 17 17 16 16 16 16 16 16 16 16 15 15 15 15 15 14 14
20 21 19 19 18 18 18 18 18 18 18 18 17 17 17 16 16 16 16 17 17 17 17 17 17 17 17 16 16 16 16 16 16 16 16 15 15 15 15 15 15 14 14 14
19 20 19 18 17 17 17 17 17 17 17 17 17 16 16 16 16 16 16 16 16 16 16 16 16 16 16 16 16 15 15 15 15 15 15 15 15 14 14 14 14 14 14 13
19 18 18 17 16 16 16 16 16 16 16 16 16 16 15 15 15 15 15 15 15 15 15 15 16 15 15 15 15 15 15 14 14 14 14 14 14 14 14 14 13 13 13 13
16 16 16 16 15 15 15 15 15 15 15 15 15 15 15 15 14 14 14 14 14 15 15 15 15 15 15 15 15 15 14 14 14 14 14 14 14 14 13 13 13 13 13 13
14 15 15 15 15 15 15 15 15 15 15 15 15 14 14 14 14 14 14 14 14 14 14 14 14 14 14 14 14 14 14 14 14 14 14 13 13 13 13 13 12 12 12 12
14 14 15 14 14 14 14 14 14 14 14 14 14 14 14 13 13 13 13 13 13 14 13 14 14 14 14 14 14 13 13 13 13 13 13 13 13 13 13 12 12 12 12 11
14 14 14 14 14 14 14 14 14 14 14 13 13 13 13 13 13 13 13 13 13 13 13 13 13 13 13 13 13 13 13 13 13 13 13 12 12 12 12 12 12 11 11 11
13 14 14 14 13 13 13 13 13 13 13 12 12 12 12 12 12 12 12 12 12 12 12 12 12 12 12 12 12 12 12 12 12 12 12 12 12 12 12 12 11 11 11 11
12 12 12 13 13 12 12 13 12 12 12 12 12 12 12 12 12 12 12 12 12 12 12 12 12 12 12 12 12 12 12 12 12 12 12 12 12 11 11 11 11 11 10 10
11 12 12 12 12 12 12 12 12 11 11 11 11 11 11 11 11 11 11 11 11 11 11 11 12 11 11 11 11 11 12 12 12 11 11 11 11 11 11 11 10 10 10 10
11 11 11 11 11 11 11 11 11 11 11 11 10 10 11 11 11 11 11 11 11 11 11 11 11 11 11 11 11 11 11 11 11 11 11 11 11 11 10 10 10 10 9 9
10 10 11 11 11 11 11 10 10 10 10 10 10 10 10 10 10 10 10 11 10 10 10 11 11 10 10 11 11 11 11 11 11 11 11 10 10 10 10 10 10 9 9 9
10 10 10 10 10 10 10 10 10 10 10 10 10 10 10 10 10 10 10 10 10 10 10 10 10 10 10 10 10 11 11 10 10 10 10 10 10 10 9 9 9 9 9 8
10 10 10 10 10 10 10 10 10 9 9 9 9 9 10 10 10 10 10 10 10 10 10 10 10 10 10 10 10 10 10 10 10 10 10 9 9 9 9 9 9 8 8 8
9 9 9 9 9 9 9 9 9 9 9 9 9 9 9 9 9 10 9 9 9 9 9 9 10 10 10 10 10 10 9 9 9 9 9 9 9 9 8 8 8 8 8 8
9 9 9 9 9 9 9 9 9 9 9 9 9 9 9 9 9 9 9 9 9 9 9 9 9 9 9 9 9 9 9 9 9 8 8 8 8 8 8 8 8 7 7 7
9 9 9 9 9 9 9 9 9 9 9 9 9 9 9 9 9 9 9 9 9 9 9 8 9 9 9 9 9 8 8 8 8 8 8 8 8 8 8 7 7 7 7 6
9 9 9 9 9 9 9 9 9 9 9 9 9 9 9 8 8 8 8 8 8 8 8 8 8 8 8 8 8 8 8 8 8 8 8 7 7 7 7 7 7 6 6 6
Wind_Speed
7 5 6 8 10 11 13 13 13 10 8 4 2 2 1 1 2 2 3 3 3 4 4 5 6 6 6 6 6 7 8 8 9 8 7 7 7 6 6 6 6 5 5 4
9 8 8 9 10 11 11 11 11 10 8 1 2 1 1 1 1 1 1 2 2 3 4 5 6 6 6 6 6 7 8 8 8 8 8 7 7 6 6 6 5 5 5 4
10 8 9 13 11 11 10 8 9 10 4 1 1 1 1 1 1 1 1 1 2 3 3 4 5 6 7 6 6 7 8 7 8 8 8 8 7 7 6 6 6 5 5 4
8 8 13 4 2 4 6 5 4 2 1 2 2 2 2 1 2 3 3 3 2 2 3 3 4 5 6 6 6 6 6 7 7 8 8 7 7 6 6 5 5 5 5 5
9 12 10 5 3 4 6 6 3 3 1 2 2 2 2 4 5 5 5 4 3 3 3 3 4 5 7 6 6 6 6 6 7 7 7 8 7 7 6 6 5 5 5 5
9 12 12 4 4 2 5 7 2 1 1 1 2 5 1 5 6 6 6 5 4 3 3 3 4 5 7 7 7 7 7 6 6 6 7 8 8 7 6 6 6 5 5 4
12 11 8 2 1 4 8 2 2 1 1 2 3 5 4 5 6 6 6 5 4 3 2 2 3 5 7 7 8 7 7 7 7 7 7 8 8 7 7 6 5 5 5 4
9 12 7 3 1 3 3 4 2 2 3 4 4 4 4 4 5 5 5 5 4 3 3 2 3 5 6 6 6 6 7 7 7 7 7 7 8 7 7 6 6 6 5 4
4 2 3 3 3 3 4 3 3 3 4 4 4 4 4 4 5 5 5 5 5 4 3 2 3 4 6 5 5 6 6 7 6 6 6 7 8 8 7 7 6 6 5 5
4 3 1 2 2 3 3 3 4 4 4 4 4 4 4 4 5 5 5 5 4 4 3 3 2 3 4 4 5 6 7 6 6 6 6 6 6 6 6 6 6 5 5 4
8 6 3 2 2 4 4 4 4 5 5 4 5 5 4 4 5 5 4 4 4 3 3 3 3 3 3 4 5 6 6 5 5 5 7 6 4 3 4 3 3 4 4 4
7 5 5 5 5 6 6 5 5 5 5 5 4 4 4 4 4 4 4 4 4 3 3 3 3 3 3 3 5 6 6 5 4 5 6 6 6 4 4 3 4 3 3 0
7 6 6 7 7 6 6 6 6 6 6 5 4 3 3 4 4 4 4 4 3 3 3 2 2 2 2 3 5 6 6 6 5 5 6 6 6 6 5 4 4 4 3 2
6 6 7 7 7 6 6 6 6 6 6 5 4 4 4 4 4 4 4 4 3 3 3 2 2 2 1 2 4 5 5 5 5 5 5 6 6 5 5 5 5 3 4 6
7 8 8 7 7 7 6 6 6 5 4 4 4 4 4 4 4 4 4 3 3 3 3 2 1 2 1 2 4 4 4 4 4 5 5 5 5 4 4 4 4 3 3 4
7 7 7 7 6 6 6 6 6 5 5 5 5 5 5 5 5 4 4 3 3 3 3 2 1 1 1 2 3 3 3 4 4 5 5 5 4 4 4 4 3 3 3 3
8 7 7 7 6 6 6 6 6 6 5 5 5 5 5 5 5 5 4 4 3 3 3 1 1 1 1 1 2 2 2 4 5 4 4 4 4 4 3 3 3 3 3 3
6 7 7 6 5 5 5 5 5 5 5 4 4 4 4 4 4 4 3 2 2 1 1 1 0 1 1 1 1 2 2 3 3 3 4 3 3 3 3 3 3 3 3 3
5 6 7 6 5 5 4 4 5 5 5 3 3 3 3 3 3 3 2 1 1 1 1 1 1 1 2 2 1 2 2 3 3 4 4 4 3 3 3 2 2 2 2 3
5 5 4 4 4 3 4 4 4 4 4 3 2 3 3 3 3 3 2 1 1 1 1 2 1 1 2 2 1 2 3 3 3 3 3 3 3 2 2 2 2 2 2 1
2 2 2 2 2 3 3 4 4 3 3 2 3 3 3 3 3 2 1 1 2 2 2 2 1 1 2 1 1 2 3 3 3 3 3 2 2 2 1 1 1 1 1 1
2 2 3 3 2 3 3 3 3 3 3 3 3 3 2 2 2 1 1 2 2 2 2 2 2 4 2 0 1 2 3 3 3 3 2 1 1 1 1 1 1 1 1 1
2 2 2 2 2 2 2 2 2 2 2 1 1 1 1 1 1 2 2 3 2 2 2 3 5 5 2 1 3 3 4 4 3 3 2 1 1 1 1 1 1 1 1 1
3 2 3 3 2 2 2 3 3 3 3 3 3 2 2 2 2 3 4 4 4 4 4 6 6 5 2 3 4 4 4 3 3 3 2 2 2 1 1 1 1 1 1 1
2 3 3 3 3 3 3 3 4 4 5 5 6 5 4 4 4 4 4 5 5 4 4 5 5 3 3 4 4 4 4 3 3 2 2 2 2 2 2 2 2 1 1 1
3 3 3 2 2 2 2 3 3 4 4 5 5 5 5 5 5 5 4 5 5 5 4 4 4 3 4 4 4 4 4 4 3 2 3 2 2 2 2 2 2 2 1 1
3 3 2 2 3 3 3 3 4 4 5 5 5 5 5 5 5 5 5 5 4 4 4 4 3 4 4 4 4 4 4 4 3 3 3 2 2 2 2 2 1 1 1 1
Wind_Direction
247 245 226 222 218 217 230 246 253 250 247 266 292 286 313 122 145 154 154 159 166 173 174 177 175 177 180 181 179 180 182 183 181 180 180 179 175 175 173 175 176 173 174 179
227 225 227 233 231 227 233 240 246 250 246 304 350 16 50 91 142 175 189 191 184 184 180 182 183 182 180 183 179 179 183 182 175 173 173 177 179 176 171 171 174 176 179 182
228 213 228 233 231 230 228 235 242 243 247 5 315 324 311 310 310 330 309 258 223 205 202 196 195 190 188 185 179 181 184 182 175 174 175 177 177 174 175 174 176 183 187 189
229 213 233 220 157 228 223 222 238 254 286 300 306 293 305 4 9 342 330 314 283 245 216 206 201 192 190 182 180 182 180 181 181 178 177 176 176 176 176 178 183 186 189 191
231 230 233 199 188 208 217 220 218 225 242 316 332 227 154 57 11 343 328 317 299 271 239 209 201 189 181 182 182 182 181 181 184 182 180 177 178 182 178 177 179 183 190 193
233 241 239 203 145 202 234 215 142 228 248 312 289 248 246 9 347 338 338 330 313 280 240 210 198 187 182 181 182 187 186 180 178 179 179 183 180 182 181 179 180 182 181 185
234 240 239 76 106 201 227 226 64 316 284 277 300 323 331 327 334 338 336 326 313 288 251 220 203 192 190 190 191 189 181 175 177 178 183 182 177 177 177 178 176 178 177 182
232 237 229 65 194 241 342 14 352 318 312 312 318 324 321 327 330 333 337 334 327 312 288 261 223 203 200 201 195 182 176 176 175 179 184 176 172 171 175 175 175 179 184 190
254 258 51 28 1 349 328 316 312 305 316 309 302 308 315 321 325 331 333 336 331 319 303 280 242 221 213 204 188 180 176 175 172 171 173 174 174 172 176 180 185 184 188 193
256 235 320 337 340 338 333 320 309 306 303 296 295 300 305 312 318 326 330 331 331 324 316 304 283 256 232 209 187 181 181 175 169 167 168 169 172 175 180 183 186 183 188 197
252 261 275 272 312 330 332 325 315 306 300 296 294 294 299 302 308 317 324 326 329 325 329 312 296 276 247 210 189 181 176 168 170 173 161 160 159 156 179 173 184 192 195 196
267 269 276 283 305 309 308 309 306 305 307 304 296 291 297 303 311 315 317 320 321 318 314 306 299 285 266 218 191 180 174 168 172 169 161 159 156 144 74 98 99 88 54 78
280 285 285 281 285 292 296 298 297 296 294 292 296 293 295 301 308 310 312 317 320 319 313 304 299 292 272 211 188 183 180 172 173 172 167 167 170 171 163 139 126 140 152 143
271 270 265 268 276 283 289 289 290 292 285 281 288 291 292 295 298 302 312 320 325 325 319 308 305 315 293 201 182 178 177 165 172 174 175 175 175 176 173 169 165 162 165 164
265 262 265 272 274 276 278 280 282 291 296 287 283 284 289 292 293 301 310 316 321 317 314 318 323 341 328 173 160 160 165 168 178 176 172 167 164 165 169 172 168 155 145 148
269 262 260 262 266 272 278 282 281 287 293 293 289 282 284 287 289 290 293 299 301 301 302 304 325 341 28 135 134 143 146 140 170 174 166 164 165 164 165 169 167 166 167 156
265 261 263 263 269 277 280 285 284 288 291 285 284 281 277 278 279 279 281 284 286 279 277 279 315 9 86 121 134 137 144 146 161 168 160 160 161 161 161 166 170 174 171 149
267 274 276 271 269 279 286 292 295 297 297 287 285 282 280 276 278 278 275 270 274 284 281 264 91 102 115 132 151 152 164 169 164 150 145 145 145 154 158 168 173 177 170 152
275 277 277 275 275 277 286 294 298 301 301 295 287 286 288 289 285 280 276 279 277 265 316 57 78 127 123 120 139 157 160 155 149 144 145 145 160 158 161 167 170 171 164 161
284 279 272 276 279 283 294 302 306 307 304 293 284 292 298 306 308 301 299 306 312 341 85 74 104 107 115 115 181 145 145 145 142 141 144 152 161 163 168 164 159 152 158 169
310 308 297 292 300 311 313 315 315 313 313 302 291 294 300 306 308 307 306 335 13 46 74 98 115 106 104 96 235 147 142 140 136 136 143 154 159 156 154 148 149 145 152 162
7 349 328 314 313 315 317 317 317 320 318 305 303 306 306 307 315 350 62 43 46 44 63 89 91 74 63 65 138 115 113 113 113 114 118 125 133 126 123 122 132 141 142 140
359 354 339 333 329 324 326 334 339 341 342 333 331 327 338 12 40 86 83 68 63 47 61 70 70 73 43 100 84 89 92 96 101 109 113 115 113 119 133 141 146 140 126 131
1 8 15 16 19 27 31 35 42 47 50 55 56 55 68 91 88 77 81 83 58 56 69 69 70 63 60 84 76 78 82 86 89 92 97 99 101 116 134 144 142 132 131 142
37 44 46 39 45 45 50 59 72 73 68 64 67 67 66 71 85 87 86 85 79 76 82 82 77 61 79 79 80 80 81 77 77 84 100 104 108 109 106 100 94 101 110 124
50 54 57 48 46 43 51 60 64 66 70 75 69 65 69 73 80 87 92 94 90 88 84 87 90 92 83 84 86 84 84 91 90 90 89 95 95 89 87 80 76 76 81 73
78 79 75 68 64 54 57 67 71 69 67 71 74 70 70 73 75 77 80 84 85 85 89 92 92 88 86 84 85 84 83 82 78 75 79 79 76 73 78 80 72 72 65 71
Height
1484 1482 1482 1485 1487 1488 1490 1488 1490 1488 1488 1489 1492 1495 1498 1500 1501 1503 1504 1505 1506 1507 1508 1509 1511 1512 1514 1516 1517 1518 1520 1521 1523 1525 1527 1528 1529 1531 1532 1532 1534 1535 1535 1536
1489 1485 1485 1487 1486 1486 1487 1486 1486 1487 1488 1490 1493 1496 1498 1500 1501 1501 1502 1503 1504 1505 1506 1507 1508 1509 1511 1513 1514 1516 1517 1519 1520 1523 1524 1526 1527 1529 1530 1530 1531 1532 1533 1533
1489 1486 1489 1492 1485 1484 1485 1484 1485 1487 1489 1493 1495 1497 1499 1499 1500 1501 1501 1502 1503 1503 1504 1505 1506 1507 1509 1510 1512 1514 1516 1517 1518 1520 1522 1523 1525 1527 1528 1528 1529 1530 1531 1531
1487 1494 1503 1486 1483 1484 1485 1487 1488 1489 1492 1494 1496 1498 1499 1500 1500 1500 1501 1501 1501 1502 1502 1503 1504 1505 1506 1508 1510 1512 1513 1515 1516 1518 1520 1521 1523 1524 1525 1526 1527 1528 1529 1529
1487 1491 1488 1486 1486 1486 1488 1489 1490 1492 1494 1495 1496 1496 1497 1499 1499 1500 1499 1499 1499 1500 1500 1501 1501 1502 1503 1505 1507 1509 1510 1511 1513 1515 1517 1518 1520 1521 1522 1523 1524 1525 1526 1526
1490 1493 1493 1484 1485 1489 1490 1491 1492 1493 1495 1495 1495 1491 1493 1498 1498 1498 1498 1497 1497 1497 1497 1498 1498 1499 1500 1501 1502 1504 1506 1508 1510 1512 1514 1516 1516 1518 1519 1520 1521 1522 1523 1523
1490 1491 1482 1485 1488 1490 1494 1491 1494 1494 1496 1496 1495 1496 1498 1497 1497 1496 1496 1495 1495 1495 1495 1495 1496 1496 1497 1497 1498 1501 1503 1505 1506 1508 1509 1511 1512 1514 1516 1517 1518 1519 1520 1520
1488 1491 1489 1490 1489 1490 1492 1494 1495 1496 1496 1497 1497 1497 1497 1496 1495 1494 1494 1493 1492 1492 1492 1492 1493 1494 1494 1495 1496 1498 1499 1501 1502 1504 1506 1507 1509 1510 1513 1514 1515 1516 1517 1518
1487 1489 1493 1494 1495 1496 1496 1496 1496 1496 1496 1496 1496 1495 1495 1495 1494 1493 1492 1491 1490 1490 1489 1489 1490 1491 1491 1492 1494 1495 1496 1497 1498 1500 1501 1503 1505 1506 1508 1510 1511 1512 1514 1515
1491 1489 1494 1495 1496 1496 1496 1496 1496 1496 1496 1495 1494 1494 1493 1493 1492 1491 1490 1489 1488 1487 1487 1487 1487 1488 1489 1489 1490 1492 1492 1493 1494 1495 1497 1499 1501 1503 1505 1506 1507 1508 1510 1510
1491 1492 1494 1495 1496 1496 1496 1496 1495 1494 1494 1493 1493 1492 1492 1491 1490 1489 1488 1487 1486 1485 1484 1484 1485 1485 1485 1485 1486 1487 1488 1489 1490 1491 1492 1495 1497 1499 1502 1503 1504 1505 1506 1507
1489 1493 1494 1495 1496 1496 1495 1494 1494 1493 1492 1491 1491 1490 1490 1489 1488 1488 1486 1484 1483 1482 1481 1482 1482 1481 1481 1482 1482 1483 1484 1485 1487 1488 1489 1491 1494 1496 1498 1499 1500 1501 1503 1504
1494 1494 1494 1494 1494 1494 1493 1493 1492 1491 1490 1489 1488 1488 1487 1487 1486 1485 1484 1482 1481 1480 1479 1479 1478 1478 1478 1478 1479 1479 1480 1482 1484 1485 1486 1488 1491 1492 1493 1495 1497 1498 1499 1500
1493 1493 1492 1492 1492 1492 1491 1490 1490 1489 1487 1487 1486 1486 1485 1484 1483 1482 1481 1480 1479 1478 1477 1476 1476 1475 1475 1475 1476 1476 1477 1478 1481 1482 1484 1486 1488 1490 1491 1492 1494 1495 1496 1497
1491 1491 1490 1490 1489 1489 1489 1488 1487 1486 1484 1484 1484 1483 1483 1482 1481 1480 1480 1479 1477 1476 1475 1474 1473 1473 1472 1472 1473 1474 1475 1477 1479 1480 1482 1483 1486 1488 1490 1491 1492 1493 1494 1495
1488 1487 1487 1487 1486 1486 1486 1485 1484 1483 1482 1481 1481 1481 1480 1480 1479 1478 1478 1477 1475 1474 1473 1473 1472 1471 1471 1470 1470 1472 1474 1475 1477 1479 1481 1482 1484 1485 1487 1489 1490 1491 1491 1492
1484 1484 1483 1483 1483 1483 1483 1482 1481 1480 1479 1478 1478 1477 1477 1477 1476 1476 1475 1474 1473 1472 1472 1471 1471 1471 1470 1470 1470 1471 1473 1475 1476 1478 1480 1481 1483 1484 1485 1487 1488 1488 1489 1489
1482 1482 1482 1481 1480 1480 1480 1479 1478 1477 1476 1475 1475 1474 1474 1474 1473 1473 1473 1472 1471 1470 1470 1470 1470 1470 1470 1470 1471 1472 1473 1475 1476 1477 1478 1480 1481 1483 1484 1485 1486 1486 1486 1487
1478 1479 1478 1478 1478 1478 1477 1477 1476 1475 1474 1472 1472 1472 1471 1471 1471 1471 1470 1470 1469 1469 1469 1469 1469 1470 1470 1470 1471 1472 1473 1475 1476 1477 1478 1479 1481 1482 1483 1484 1484 1484 1485 1485
1476 1476 1476 1475 1476 1475 1475 1474 1473 1472 1471 1470 1469 1469 1469 1469 1469 1469 1468 1468 1468 1468 1468 1468 1469 1469 1470 1470 1471 1472 1473 1474 1475 1476 1477 1479 1480 1481 1482 1482 1482 1482 1483 1483
1474 1474 1473 1474 1474 1473 1472 1472 1470 1469 1468 1468 1467 1467 1467 1467 1467 1466 1466 1467 1467 1467 1467 1467 1468 1469 1470 1470 1471 1472 1473 1474 1475 1476 1477 1478 1479 1479 1480 1480 1480 1481 1481 1482
1472 1472 1472 1472 1472 1471 1470 1469 1468 1467 1466 1466 1466 1466 1465 1465 1465 1465 1465 1466 1466 1467 1467 1467 1468 1469 1469 1470 1471 1472 1473 1473 1474 1475 1476 1477 1478 1478 1478 1479 1479 1480 1480 1480
1472 1472 1471 1471 1470 1469 1468 1467 1466 1466 1465 1465 1465 1465 1465 1464 1464 1464 1465 1466 1467 1467 1467 1467 1468 1468 1469 1471 1472 1472 1472 1473 1474 1475 1476 1476 1477 1477 1477 1477 1478 1478 1478 1478
1472 1471 1471 1470 1469 1468 1467 1467 1466 1466 1465 1465 1465 1465 1465 1465 1465 1466 1466 1467 1468 1468 1468 1468 1469 1469 1470 1471 1472 1472 1473 1474 1474 1475 1475 1476 1476 1476 1476 1476 1477 1477 1477 1477
1473 1472 1471 1470 1470 1469 1469 1468 1467 1467 1467 1466 1466 1466 1466 1466 1467 1467 1468 1468 1469 1469 1470 1470 1470 1471 1472 1473 1473 1473 1474 1474 1475 1475 1475 1475 1476 1476 1476 1476 1476 1476 1476 1476
1473 1473 1473 1472 1472 1471 1471 1471 1470 1470 1469 1469 1469 1469 1469 1469 1469 1469 1469 1470 1470 1471 1471 1472 1473 1473 1474 1474 1475 1475 1475 1475 1475 1475 1476 1476 1476 1475 1475 1475 1475 1475 1475 1474
1474 1474 1474 1474 1474 1473 1473 1473 1472 1472 1472 1472 1472 1472 1472 1472 1472 1472 1472 1472 1473 1473 1474 1474 1475 1476 1476 1476 1476 1476 1476 1476 1477 1476 1476 1476 1476 1475 1475 1475 1475 1474 1474 1473